Volver al catálogo

ARIANE 2 DEB

LostGTO
NORAD 33570·DEBRIS·🇫🇷 France

Lanzado Jan 27, 1989 desde Guiana Space Centre

Loading…

TLE

ObsoletoSource: Space-Track

Época: May 15, 2016, 12:31 UTC

1 33570U 89006BN  16136.52211315  .00000945  00000-0  20272-1 0  9990
2 33570   8.0464 133.4791 7120125  18.9319  87.6909  2.26840494 83895

Sigue ARIANE 2 DEB en tiempo real con AllMySat

Download on the App Store